Cortez, CO

6:02 PM MST on November 13, 2019 (GMT -0700)
Cortez Municipal

Weather History for KCEZ - September, 2019

Change the Weather History Date:

Tuesday, September 10, 2019

  Actual Average Record
Temperature  
Mean Temperature 62 °F 62 °F  
Max Temperature 79 °F 80 °F 89 °F (2015)
Min Temperature 44 °F 45 °F 32 °F (2001)
Degree Days  
Heating Degree Days 3 3  
Month to date heating degree days 6 23  
Since 1 July heating degree days 6 35  
Cooling Degree Days 0 1  
Month to date cooling degree days 63 13  
Year to date cooling degree days 543 422  
Growing Degree Days 10 (Base 50)    
Moisture  
Dew Point 46 °F    
Average Humidity 49    
Maximum Humidity 65    
Minimum Humidity 33    
Precipitation  
Precipitation 0.08 in 0.06 in 0.50 in (2002)
Month to date precipitation 0.15 0.53  
Year to date precipitation 9.93 8.97  
Sea Level Pressure  
Sea Level Pressure 29.92 in    
Wind  
Wind Speed 6 mph (SSW)    
Max Wind Speed 24 mph    
Max Gust Speed 36 mph    
Visibility 9 miles    
Events Rain , Thunderstorm    
T = Trace of Precipitation, MM = Missing Value Source: NWS Daily Summary

Daily Weather History Graph

Daily Weather History Graph

Search for Another Location

Airport or City:

Astronomy

Sep. 10, 2019 Rise Set
Actual Time 6:52 AM MDT 7:30 PM MDT
Civil Twilight 6:26 AM MDT 7:56 PM MDT
Nautical Twilight 5:54 AM MDT 8:27 PM MDT
Astronomical Twilight 5:23 AM MDT 8:59 PM MDT
Moon 6:03 PM MDT (9/10) 3:26 AM MDT (9/10)
Length of Visible Light 13h 30m
Length of Day
12h 37m
Waxing Gibbous, 90% of the Moon is Illuminated
Sep 10
Waxing Gibbous
Sep 13
Full
Sep 21
Last Quarter
Sep 28
New
Oct 5
First Quarter

Hourly Weather History & Observations

Time (MDT) Temp. Dew Point Humidity Pressure Visibility Wind Dir Wind Speed Gust Speed Precip Events Conditions
12:53 AM 55.0 °F 36.0 °F 49% 29.83 in 10.0 mi Calm Calm - N/A   Scattered Clouds
1:53 AM 53.1 °F 35.1 °F 50% 29.83 in 10.0 mi East 6.9 mph - N/A   Clear
2:53 AM 50.0 °F 35.1 °F 57% 29.84 in 10.0 mi Calm Calm - N/A   Partly Cloudy
3:53 AM 50.0 °F 35.1 °F 57% 29.86 in 10.0 mi ENE 6.9 mph - N/A   Clear
4:53 AM 48.9 °F 35.1 °F 59% 29.87 in 10.0 mi NE 3.5 mph - N/A   Clear
5:53 AM 46.0 °F 35.1 °F 66% 29.89 in 10.0 mi Calm Calm - N/A   Clear
6:53 AM 46.0 °F 35.1 °F 66% 29.91 in 10.0 mi Calm Calm - N/A   Clear
7:53 AM 50.0 °F 36.0 °F 59% 29.97 in 10.0 mi West 3.5 mph - N/A   Clear
8:53 AM 64.9 °F 41.0 °F 42% 29.93 in 10.0 mi Calm Calm - N/A   Clear
9:53 AM 72.0 °F 42.1 °F 34% 29.92 in 10.0 mi South 9.2 mph - N/A   Overcast
10:53 AM 73.9 °F 43.0 °F 33% 29.91 in 10.0 mi SSW 13.8 mph 21.9 mph N/A   Clear
11:53 AM 75.9 °F 45.0 °F 33% 29.90 in 10.0 mi SSW 13.8 mph - N/A   Mostly Cloudy
12:36 PM 71.1 °F 48.9 °F 45% 30.10 in 10.0 mi South 13.8 mph 23.0 mph 0.00 in Thunderstorm Overcast
12:51 PM 64.4 °F 53.6 °F 68% 30.11 in 3.0 mi SW 15.0 mph 25.3 mph 0.05 in Rain Rain
12:53 PM 64.0 °F 54.0 °F 70% 29.93 in 2.5 mi SW 9.2 mph 25.3 mph 0.05 in Rain Heavy Rain
1:00 PM 66.0 °F 55.9 °F 70% 30.09 in 3.0 mi West 5.8 mph - 0.01 in Rain , Thunderstorm Light Thunderstorms and Rain
1:35 PM 70.0 °F 54.0 °F 57% 30.08 in 10.0 mi WNW 5.8 mph - 0.01 in   Partly Cloudy
1:53 PM 72.0 °F 53.1 °F 51% 29.88 in 10.0 mi West 5.8 mph - 0.01 in   Partly Cloudy
2:53 PM 73.9 °F 50.0 °F 43% 29.87 in 10.0 mi South 13.8 mph 21.9 mph 0.00 in   Scattered Clouds
3:53 PM 75.9 °F 48.0 °F 37% 29.84 in 10.0 mi SSW 13.8 mph - N/A   Scattered Clouds
4:53 PM 73.0 °F 53.1 °F 49% 29.85 in 10.0 mi SW 6.9 mph - 0.01 in   Scattered Clouds
5:41 PM 70.0 °F 51.1 °F 51% 30.03 in 10.0 mi SE 6.9 mph - N/A Thunderstorm Scattered Clouds
5:51 PM 69.8 °F 51.8 °F 53% 30.04 in 7.0 mi Calm Calm - 0.01 in Rain , Thunderstorm Light Thunderstorms and Rain
6:13 PM 71.1 °F 55.9 °F 59% 30.03 in 10.0 mi North 5.8 mph - 0.00 in Thunderstorm Scattered Clouds
6:22 PM 72.0 °F 55.0 °F 55% 30.02 in 10.0 mi North 3.5 mph - 0.00 in   Partly Cloudy
6:53 PM 70.0 °F 50.0 °F 49% 29.85 in 10.0 mi SSE 8.1 mph - 0.00 in   Scattered Clouds
7:53 PM 68.0 °F 51.1 °F 55% 29.84 in 10.0 mi SE 11.5 mph - N/A   Scattered Clouds
8:53 PM 64.9 °F 51.1 °F 61% 29.83 in 10.0 mi West 4.6 mph - N/A   Partly Cloudy
9:53 PM 66.9 °F 50.0 °F 54% 29.82 in 10.0 mi SSW 8.1 mph - N/A   Clear
10:53 PM 66.9 °F 48.9 °F 52% 29.82 in 10.0 mi South 11.5 mph - N/A   Clear
11:53 PM 60.1 °F 48.9 °F 67% 29.85 in 10.0 mi Calm Calm - N/A   Clear